Wind_Speed
13 12 12 13 13 12 12 12 12 13 13 14 15 16 17 17 16 16 15 14 14 14 14 13 13 13 14 16 17 19 19 20 21 22 22 24 26 26 26 26 27 27 26 24 22 19 17 16 13 10 8 7 7 6 7 9 6 7 8 8 6 2 5 5 5 6 6 8 8 7 8 8 9 7 5 8 8 8 10 10 11 9 10 13 13 13 16 18
14 13 13 13 13 13 13 13 13 12 13 13 13 14 15 15 16 15 14 14 13 13 13 13 12 11 12 13 15 17 17 19 20 19 21 23 23 23 24 25 26 27 27 25 22 20 18 17 14 11 9 7 8 6 7 9 8 8 9 9 4 2 6 4 3 5 5 8 8 7 8 7 8 7 7 9 8 8 10 11 11 10 13 15 13 12 14 16
15 14 14 14 13 13 13 13 13 13 13 13 13 13 13 14 14 15 15 14 13 13 12 12 12 11 10 11 13 15 16 17 16 18 21 21 20 21 22 22 24 26 27 25 23 20 18 18 15 13 10 8 8 7 7 8 9 8 9 9 1 4 4 3 2 3 5 7 8 7 8 8 8 8 8 9 8 9 10 11 12 13 14 14 11 12 14 15
15 15 15 15 14 14 14 14 14 13 13 13 13 13 13 13 13 14 14 14 14 13 12 12 11 10 9 10 11 12 13 11 11 17 20 19 19 20 20 21 22 24 26 25 24 22 19 18 17 15 11 10 10 10 9 8 9 7 9 8 4 5 2 3 2 3 4 6 8 7 8 8 8 8 8 9 8 8 9 10 13 13 13 12 11 13 14 15
16 16 16 16 15 15 15 15 14 14 14 14 14 13 13 12 13 13 14 14 14 13 13 12 11 10 9 8 9 9 8 4 9 18 18 17 19 19 20 21 21 23 24 25 25 23 21 18 16 16 14 12 12 12 13 11 10 8 8 8 4 2 1 2 2 4 4 6 8 7 8 9 9 9 8 9 7 7 9 10 12 12 11 10 11 13 14 15
17 17 17 17 16 16 16 16 15 15 14 14 14 14 13 12 12 12 13 14 14 14 13 12 12 10 9 8 8 7 8 6 7 15 16 17 19 19 20 20 21 22 23 25 26 24 23 20 17 18 16 15 14 14 13 11 12 11 8 7 6 4 2 1 2 4 4 6 8 7 8 8 9 9 8 8 5 6 9 11 12 12 10 10 10 12 13 14
19 18 18 18 17 17 17 17 16 15 15 14 14 15 14 13 12 12 12 13 13 13 13 13 12 11 9 8 7 8 12 10 8 15 15 15 18 19 20 20 21 22 23 25 26 25 24 22 21 20 17 16 16 15 14 12 12 13 10 7 7 6 4 2 2 4 5 7 8 8 8 8 9 9 9 9 6 8 9 11 13 11 11 12 11 12 13 13
20 20 19 19 18 19 18 18 17 17 16 15 15 15 15 14 13 12 13 13 12 12 13 13 12 11 10 9 8 9 10 8 13 21 17 14 17 20 21 21 22 23 23 25 26 26 25 24 23 21 18 18 16 14 14 13 13 14 13 9 8 8 6 4 3 4 6 7 8 9 8 8 9 8 9 9 8 10 10 12 14 12 13 14 13 13 14 15
21 21 20 20 20 20 19 19 19 18 17 16 15 15 15 15 14 14 14 13 12 12 12 12 12 12 10 10 9 9 8 9 18 23 19 16 16 18 21 21 22 23 23 24 25 26 26 25 25 22 20 18 17 16 14 14 14 13 14 12 10 9 7 6 6 7 7 8 9 9 9 9 8 7 10 10 9 11 12 13 12 11 12 14 15 15 15 17
22 22 22 21 21 21 21 21 20 19 18 17 16 16 15 15 15 15 15 14 13 12 12 12 12 12 11 10 10 10 10 11 17 20 20 19 18 18 20 21 23 23 23 24 25 26 27 27 24 22 21 19 18 17 15 16 14 10 10 12 11 10 8 7 7 9 9 9 11 10 10 10 9 7 10 12 11 12 13 13 11 10 11 14 16 16 16 17
22 22 22 22 22 22 22 22 21 20 19 19 18 17 16 15 15 15 15 15 14 13 13 13 12 13 13 12 11 12 12 10 12 18 21 21 20 20 20 22 23 22 23 24 25 26 27 27 22 19 21 21 19 18 17 18 15 11 9 10 11 11 10 8 9 11 11 11 12 11 10 11 9 6 10 13 12 14 15 13 13 12 12 14 15 16 16 17
21 22 22 23 23 23 23 23 22 22 21 20 19 18 17 16 16 16 16 15 14 14 14 14 14 13 15 15 11 11 14 14 14 17 20 21 22 22 22 22 22 22 23 23 23 24 26 26 22 20 21 19 19 17 16 18 17 13 12 12 11 11 12 11 11 14 13 13 13 11 11 12 11 7 10 13 12 15 17 14 14 14 13 14 14 15 16 16
21 21 22 23 23 23 24 24 23 23 22 21 20 19 18 17 17 17 16 16 15 15 15 15 15 15 17 14 9 10 15 16 16 18 19 21 22 23 23 22 21 22 22 23 22 21 24 25 23 22 22 19 21 18 12 15 19 16 14 15 13 12 13 12 12 15 14 13 14 13 12 13 13 9 11 13 12 16 18 17 17 15 14 14 14 14 14 15
21 21 21 22 23 23 24 24 24 24 24 23 22 21 20 19 18 18 17 17 16 16 16 17 17 18 18 13 9 12 15 15 16 18 19 20 21 22 23 23 22 22 22 23 22 20 22 22 21 23 24 23 21 18 14 13 17 18 16 16 16 14 13 13 14 16 15 14 15 15 11 11 13 13 13 13 12 16 19 19 18 18 17 15 14 13 13 14
21 21 21 22 22 23 23 23 24 24 24 24 23 22 21 20 20 19 19 18 17 17 17 18 18 19 21 16 12 14 15 15 15 16 19 20 20 21 22 23 23 23 23 22 20 20 21 21 24 25 25 25 23 20 18 18 19 19 19 18 18 16 12 14 16 16 16 14 16 16 11 7 11 14 15 14 13 16 18 19 20 19 19 17 15 14 13 13
22 22 22 22 22 22 23 23 23 23 24 24 24 23 23 22 22 21 20 19 19 19 18 19 18 19 21 18 15 13 13 14 14 16 18 20 19 18 20 23 23 23 23 22 21 23 25 26 29 28 23 24 27 23 18 21 22 21 21 19 17 17 14 15 16 17 16 15 17 18 12 6 9 14 16 15 15 16 17 18 20 20 20 19 17 16 15 15
23 23 22 23 23 22 23 22 23 23 23 24 24 23 24 23 23 23 22 21 20 19 19 20 18 19 20 18 17 13 11 12 13 16 18 18 19 16 17 22 21 22 22 22 23 24 27 29 29 27 25 25 28 25 22 23 24 23 22 19 18 18 16 15 16 18 18 16 18 19 15 8 9 14 16 15 16 16 16 18 20 21 21 21 20 18 18 17
22 23 22 23 23 23 23 22 22 22 22 23 23 23 23 24 24 24 23 22 22 21 21 20 19 18 14 14 15 9 9 11 11 16 18 17 19 17 18 19 18 20 21 20 23 23 23 26 26 25 27 29 29 30 29 26 23 23 22 20 19 19 18 17 17 19 20 18 18 19 17 12 10 14 15 15 17 17 16 17 18 20 22 22 22 20 20 20
22 22 22 22 23 24 24 23 22 22 21 22 23 22 21 24 25 24 25 25 24 23 19 17 20 15 6 7 8 5 10 11 9 14 15 15 18 18 17 16 16 18 19 18 21 23 23 24 26 28 31 33 33 33 33 28 23 21 20 20 20 19 18 18 17 18 21 20 19 20 19 16 12 14 15 16 17 17 17 17 18 19 21 23 23 22 22 21
23 22 22 21 22 24 24 23 22 22 21 20 22 21 20 23 22 20 26 27 24 24 21 20 24 21 13 11 9 9 16 16 12 13 13 14 17 17 18 18 17 18 19 20 20 22 24 25 30 34 33 33 33 32 31 29 24 22 21 21 22 21 17 16 16 18 21 21 20 20 19 18 16 15 16 16 17 18 18 18 19 19 21 23 23 23 23 23
24 23 23 22 22 23 24 23 22 22 21 19 20 20 21 23 20 19 26 27 23 24 26 25 27 26 22 19 15 15 20 19 16 15 14 16 16 17 21 21 20 22 23 21 19 20 25 29 32 33 31 30 31 31 30 30 27 24 24 22 21 22 19 17 18 17 20 21 19 19 20 20 19 17 17 17 17 19 20 20 20 19 20 22 23 23 23 24
25 24 24 23 22 22 24 23 22 21 20 20 19 19 21 22 21 22 26 29 25 23 26 26 27 29 25 22 21 20 22 22 19 18 18 18 17 19 22 23 24 24 23 23 22 23 27 32 31 29 29 29 29 30 31 31 30 28 25 22 21 22 20 18 19 18 19 20 19 19 20 20 20 19 18 18 20 20 20 20 20 20 21 22 23 23 24 25
25 25 25 24 22 22 23 23 22 21 20 20 19 20 20 20 21 23 24 30 27 21 25 27 25 28 26 22 22 24 27 26 22 20 21 22 22 21 21 24 25 24 24 27 27 26 28 31 29 27 27 30 30 30 31 32 31 31 27 23 22 23 21 18 19 19 19 19 17 17 19 19 20 21 21 20 20 20 20 20 20 21 22 22 22 22 23 25
25 25 24 24 23 22 23 24 22 21 20 19 19 19 20 19 20 22 23 29 30 23 22 24 24 26 25 22 24 27 27 26 25 22 23 26 24 22 23 23 25 25 26 28 29 29 27 25 26 27 27 29 32 30 30 33 32 32 30 26 23 24 22 18 19 19 18 18 18 17 17 20 21 22 22 22 21 21 21 21 22 22 22 22 22 23 22 23
26 25 24 24 23 22 23 23 22 21 20 19 19 18 18 19 18 20 22 24 27 22 17 18 21 24 26 26 26 26 24 25 27 23 24 28 25 24 24 23 25 27 27 27 29 31 28 22 23 29 29 29 32 32 31 32 32 32 31 29 25 22 21 19 19 20 19 20 22 20 16 17 22 23 22 22 22 23 23 22 24 24 24 24 23 24 24 23
27 26 24 24 24 22 22 22 21 20 20 19 19 18 17 17 16 18 19 19 21 21 18 17 17 20 25 28 25 21 21 26 29 24 24 28 26 25 24 23 25 26 26 26 27 29 28 24 23 28 31 30 31 33 32 31 32 32 30 29 27 23 22 21 20 21 20 21 22 22 18 15 18 22 23 23 23 24 24 23 24 25 26 27 25 24 24 24
27 26 25 24 24 24 21 21 21 20 20 19 18 16 16 14 13 13 13 14 16 14 17 19 17 18 20 22 24 22 16 16 21 24 26 28 27 27 25 24 24 25 24 24 26 27 27 27 26 26 29 31 33 34 33 32 33 31 26 27 29 28 26 24 22 22 21 20 20 23 23 19 18 20 22 24 24 25 25 24 23 25 27 28 25 24 24 24
26 27 25 23 25 26 22 21 20 19 20 20 17 15 14 13 12 9 7 8 5 5 13 19 20 21 19 19 24 23 14 9 14 21 26 28 27 28 27 26 24 23 24 26 28 26 25 30 32 28 29 33 34 34 31 30 32 30 25 23 26 28 28 27 25 23 22 21 21 24 24 19 18 20 20 22 26 26 26 26 25 24 26 27 25 24 24 23
26 27 26 23 24 26 24 23 20 18 20 19 17 15 13 13 10 8 8 8 6 7 12 16 18 21 22 21 22 23 17 12 11 14 22 28 26 27 28 26 23 22 24 28 28 23 22 29 31 29 31 33 31 30 30 29 29 28 25 24 25 25 27 30 26 23 22 21 21 24 25 19 16 21 22 21 25 25 25 26 25 24 24 25 26 26 26 25
26 27 27 24 24 26 25 24 21 19 19 18 16 14 13 13 10 10 11 9 8 10 13 15 15 17 22 22 22 25 21 15 11 12 21 26 25 26 25 23 23 22 24 27 28 25 21 22 28 29 29 30 28 26 29 31 28 26 27 28 27 24 25 27 28 26 21 19 23 27 29 23 15 19 25 24 24 24 23 23 23 24 23 22 23 24 26 28
25 26 27 26 24 25 25 25 22 19 18 17 16 15 14 13 13 13 12 9 10 11 12 15 14 16 22 23 21 24 23 19 16 16 22 24 25 28 25 23 24 24 24 28 29 28 23 20 26 30 28 28 28 28 28 30 29 27 28 30 27 22 23 25 28 28 17 14 24 30 30 28 20 19 23 23 23 22 23 23 22 22 22 21 20 19 22 29
26 26 27 27 26 24 24 26 23 18 18 17 16 16 15 14 18 21 15 7 7 12 13 14 16 19 22 22 21 22 24 22 21 20 23 26 27 31 31 27 27 26 26 28 27 28 30 27 23 25 28 29 30 30 29 29 31 29 29 31 26 19 18 18 19 21 17 17 25 28 28 29 25 23 22 20 20 21 23 23 21 22 23 22 21 16 18 29
26 26 26 27 27 24 25 27 23 19 18 17 17 18 17 16 20 24 23 14 7 7 9 14 18 19 21 23 22 21 22 23 24 23 24 26 26 30 33 30 28 27 24 25 25 26 29 30 27 25 28 31 33 33 32 30 32 34 34 33 26 17 12 12 13 15 16 21 26 25 24 24 24 26 27 24 20 19 21 22 21 21 21 20 21 18 16 25
27 27 26 27 27 25 25 26 25 21 18 19 20 20 21 23 22 21 25 26 17 7 6 11 17 19 21 24 22 21 22 22 24 25 24 27 27 28 32 32 31 29 24 22 25 26 23 25 32 33 28 30 35 37 33 30 31 35 35 33 30 25 17 13 12 12 15 19 24 25 21 19 21 22 24 27 24 19 17 20 22 20 17 17 21 22 18 23
27 27 27 26 27 26 25 26 26 21 19 21 22 23 29 31 24 21 23 26 24 18 11 11 16 19 22 23 22 22 23 21 22 26 27 29 30 29 31 33 34 32 28 24 23 25 24 24 29 33 28 27 34 37 34 30 29 31 33 35 35 33 28 20 16 20 23 20 20 24 24 24 23 17 15 19 23 23 20 20 23 21 18 16 19 23 22 21
27 27 27 26 27 27 25 26 26 22 21 23 25 31 38 33 23 21 20 19 23 23 17 15 18 20 22 23 24 24 24 22 21 26 28 29 30 30 29 30 33 34 32 27 21 21 23 23 23 28 30 29 31 34 36 35 30 27 33 41 38 32 31 26 21 25 26 17 17 24 26 26 26 22 20 18 18 22 23 23 24 22 19 18 18 22 23 22
29 28 26 25 27 27 25 26 25 23 22 25 31 37 37 32 26 24 19 15 19 21 21 21 21 23 23 23 24 26 25 23 22 24 26 28 29 31 30 28 30 34 34 30 23 19 19 20 21 27 31 31 28 29 34 38 34 27 31 37 35 31 32 30 22 19 18 13 16 26 28 27 24 22 24 25 22 23 23 23 23 21 20 20 20 21 20 21
29 29 26 27 28 25 24 25 25 25 23 28 38 41 34 29 28 27 24 20 16 18 23 24 22 22 23 23 23 25 27 25 24 24 24 25 27 28 31 29 28 32 34 32 27 20 18 18 19 25 29 28 27 26 31 37 40 35 28 28 31 31 32 33 24 16 15 12 12 22 29 28 26 23 22 26 27 27 27 25 23 22 21 20 21 21 18 18
30 28 24 27 29 23 21 23 24 25 26 31 38 38 34 32 29 27 27 25 21 20 23 25 22 22 24 24 23 23 27 28 26 25 23 23 23 25 30 30 27 29 31 33 30 22 17 18 18 20 25 25 26 29 31 34 40 42 34 28 31 33 33 33 28 22 19 13 11 18 22 22 26 27 24 23 26 28 30 29 25 23 22 20 20 22 19 18
29 26 21 27 30 24 21 21 22 26 29 34 36 32 29 30 30 30 29 27 26 23 23 24 24 24 24 25 25 24 26 28 28 26 24 23 22 21 26 29 27 27 29 31 32 26 19 18 18 18 23 25 29 32 34 34 36 42 43 36 31 31 32 30 31 34 27 14 10 12 14 20 27 26 23 22 22 24 27 29 29 27 25 21 18 20 22 20
26 25 21 25 29 25 21 22 24 28 30 33 35 32 28 27 27 29 30 31 31 28 25 24 25 26 24 23 25 26 25 26 27 28 25 24 24 19 21 27 26 26 28 30 32 30 23 18 18 19 24 29 32 32 32 32 32 36 42 43 35 29 29 25 24 33 34 24 19 13 11 19 26 23 23 23 22 22 22 25 28 27 24 20 17 18 21 22
24 22 16 17 23 22 21 22 24 26 29 32 33 30 29 27 26 26 27 29 33 33 29 27 27 27 26 23 23 25 26 24 25 29 26 24 25 21 18 24 26 25 27 29 30 31 26 20 18 21 23 25 27 28 29 30 31 33 36 41 40 33 30 26 19 25 33 33 31 25 18 19 20 18 18 22 24 24 21 21 23 24 21 19 19 17 19 23
24 25 20 20 23 24 23 25 24 25 29 32 31 29 28 27 28 28 27 27 29 32 32 31 30 29 28 26 23 23 27 26 23 27 26 22 23 21 16 20 25 26 25 26 27 29 28 24 21 21 22 22 22 24 27 28 29 34 34 36 41 41 36 30 24 26 31 33 32 26 19 22 24 20 16 16 20 24 23 21 22 22 21 21 20 15 16 24
25 28 26 23 25 26 26 26 25 24 27 28 30 32 30 29 28 28 28 28 26 26 29 31 30 30 30 28 25 24 25 25 24 25 26 24 22 20 17 17 23 26 25 25 25 28 29 27 24 20 16 17 19 19 24 30 30 33 35 34 39 43 41 36 32 29 28 31 34 25 17 23 28 26 23 18 16 21 24 23 24 24 24 23 21 16 19 26
24 24 21 17 20 24 26 27 25 24 25 26 28 30 30 31 31 29 27 28 28 27 27 28 27 28 29 29 29 28 25 24 23 23 26 26 22 21 20 17 20 24 24 24 24 25 27 28 27 23 15 13 16 17 22 29 30 31 34 35 36 38 40 40 38 33 26 28 35 32 26 25 25 26 28 23 16 18 19 19 21 24 26 26 22 20 23 27
22 20 15 12 17 23 25 25 25 24 24 25 27 28 28 29 30 29 28 29 29 29 29 28 26 26 29 31 31 31 30 28 24 21 24 25 23 22 21 19 19 22 24 27 26 24 24 27 30 30 25 21 20 19 20 24 27 28 30 33 35 35 37 40 40 38 33 28 32 35 31 28 27 27 31 29 25 23 21 19 20 21 23 23 21 21 25 28
20 18 15 12 15 21 24 24 23 23 23 22 23 25 27 28 26 26 28 30 30 30 30 29 28 27 28 31 32 32 31 31 29 26 25 24 23 22 22 23 23 23 26 27 24 21 22 25 30 32 30 28 25 21 21 23 25 26 27 30 34 34 35 38 39 40 37 30 30 33 33 33 35 32 30 30 30 29 27 25 24 21 21 20 18 21 26 28
18 17 16 15 17 18 21 22 20 20 22 20 19 19 21 24 25 23 23 25 27 28 30 30 30 30 28 28 29 30 29 30 33 32 29 26 24 22 23 26 27 26 26 25 22 21 21 22 25 28 29 30 30 27 25 25 26 25 26 28 31 34 36 39 39 39 39 34 31 31 31 34 37 37 35 31 29 28 28 27 26 24 23 22 20 22 26 27
17 18 17 18 20 21 21 21 20 21 21 21 21 21 17 16 21 22 21 21 23 26 29 30 30 30 29 27 27 28 29 29 31 32 31 29 26 23 24 26 28 27 26 25 25 24 23 23 22 24 26 28 30 31 30 29 28 28 29 30 30 32 35 38 38 38 39 40 36 32 32 33 33 35 38 39 35 29 24 24 27 28 26 25 23 22 24 26
15 16 17 18 21 22 21 20 20 21 20 19 21 22 19 17 18 19 21 22 21 21 25 27 26 26 29 31 30 28 28 27 28 28 29 30 30 29 26 24 25 27 28 27 27 26 27 26 23 23 26 26 27 31 33 33 32 31 32 31 31 31 33 37 39 38 38 38 38 36 36 36 33 29 31 37 39 36 29 25 25 26 26 26 24 24 25 24
16 16 17 19 22 23 21 20 18 20 21 20 20 21 21 19 18 20 24 25 19 16 17 18 19 19 21 28 33 30 26 24 23 24 25 28 31 30 28 24 21 24 29 29 28 28 29 26 23 24 27 27 27 28 31 34 35 35 36 34 33 33 33 34 35 36 37 35 35 38 39 37 33 29 27 29 34 39 40 35 30 27 26 24 24 25 26 26
17 17 17 19 22 22 22 20 19 19 21 21 21 21 21 19 18 20 25 27 23 17 15 14 15 14 11 17 24 24 24 23 23 24 23 23 28 29 29 27 24 23 27 30 29 29 28 26 24 23 25 27 26 25 28 30 28 32 38 39 36 35 34 33 32 33 35 36 34 36 38 36 32 32 31 31 32 35 40 42 41 39 36 33 31 31 31 33
Wind_Direction
278 279 280 281 282 283 286 289 290 289 286 282 277 273 270 268 267 267 270 276 282 284 285 285 281 284 287 283 272 261 255 251 248 246 244 241 241 245 246 244 245 244 245 244 244 248 250 256 260 265 278 284 301 310 269 260 253 250 256 262 268 341 54 64 65 86 124 134 128 139 140 137 139 145 155 131 129 150 140 149 165 153 141 160 189 189 174 176
278 278 278 279 280 281 283 284 288 290 289 286 281 277 274 271 269 268 269 273 279 285 287 286 284 283 284 285 276 264 258 251 247 246 246 243 241 242 242 241 241 240 240 241 241 244 247 251 254 257 267 272 283 288 260 256 254 243 256 272 267 43 49 57 70 85 120 133 130 140 145 144 146 149 132 127 145 150 145 160 161 153 160 175 188 177 176 182
279 279 278 277 278 280 281 282 284 287 289 289 286 282 278 274 272 271 271 272 276 282 286 288 287 284 284 285 279 270 261 254 253 250 245 243 241 238 237 237 237 236 235 237 238 237 240 245 249 249 253 255 251 253 248 247 251 239 256 283 15 64 25 63 92 100 108 126 139 139 143 151 150 147 134 140 156 148 156 168 159 164 177 185 187 175 178 184
278 278 278 278 278 278 279 280 281 283 286 288 289 287 283 279 276 274 274 275 276 279 284 287 289 287 285 283 282 274 263 263 259 250 244 241 242 239 235 233 231 232 231 232 234 233 234 239 244 244 241 243 239 238 238 236 247 238 242 270 28 48 4 88 98 127 120 134 144 139 144 151 151 151 141 149 157 157 173 173 168 178 186 187 187 179 176 183
277 276 276 276 276 277 277 278 279 280 281 284 287 289 289 286 281 278 277 277 278 279 281 284 288 288 285 282 282 273 260 267 252 247 247 241 238 238 235 231 226 226 226 226 228 229 229 231 236 239 235 234 237 236 237 234 244 251 246 261 310 348 343 62 133 151 136 150 150 143 150 152 154 156 149 157 161 166 179 175 177 188 189 187 186 182 175 180
277 277 276 275 275 275 275 275 276 277 278 280 282 286 288 289 287 284 280 280 280 280 281 281 285 285 284 276 272 266 229 205 245 249 248 241 233 234 233 229 224 221 221 222 222 224 225 224 226 233 234 233 236 237 238 235 237 248 252 253 266 263 270 17 155 166 161 163 161 153 153 153 155 161 157 162 148 146 171 172 178 190 186 181 181 180 172 174
276 276 275 275 274 274 274 274 273 274 276 276 278 281 284 286 287 289 287 284 282 282 283 281 283 282 282 273 261 260 231 212 258 257 241 237 230 228 230 227 223 218 217 219 218 220 222 221 221 228 233 232 236 238 240 239 233 242 249 245 244 237 240 260 176 180 180 171 170 161 159 159 160 166 162 166 152 140 161 169 178 189 180 177 178 176 170 168
274 273 274 274 274 274 273 273 273 273 273 273 275 276 279 282 284 287 288 288 288 287 286 282 283 280 278 275 258 254 243 227 261 256 239 233 228 225 227 225 224 219 216 217 216 217 219 221 221 223 228 230 235 237 239 242 235 236 244 243 237 235 238 251 224 195 186 178 175 167 169 165 161 170 164 169 169 151 158 167 179 191 179 176 175 171 172 169
273 272 272 272 272 273 273 272 272 272 272 272 272 272 274 277 280 283 284 287 290 290 290 285 284 281 275 274 263 256 253 240 248 250 240 231 227 224 225 224 225 222 218 217 215 214 215 219 220 220 225 231 236 238 238 239 236 231 237 241 237 238 239 243 228 198 189 181 179 174 173 169 163 169 165 171 176 159 160 171 183 195 181 172 173 174 175 173
274 273 271 270 270 271 271 272 272 271 271 271 271 271 271 273 276 278 280 283 287 289 290 288 285 283 277 271 263 256 253 248 246 245 241 234 227 224 224 224 225 223 221 218 215 213 214 217 219 222 229 235 237 240 238 234 238 234 235 240 235 238 236 236 227 198 190 186 184 181 175 173 172 173 169 176 183 168 165 175 182 187 181 174 175 178 177 178
275 274 272 271 270 269 270 270 270 271 271 271 271 270 271 272 273 273 276 279 282 285 286 288 286 283 281 271 260 251 245 245 245 238 237 236 232 226 223 224 223 223 223 220 217 215 214 215 216 222 231 235 238 243 242 233 239 242 239 243 233 235 238 235 223 198 190 188 184 183 181 178 182 190 179 183 189 175 171 177 176 176 181 182 181 180 180 182
274 273 272 271 270 269 269 268 269 269 270 270 270 270 270 269 271 271 273 275 277 280 282 285 285 284 281 272 265 252 240 236 237 234 232 234 234 229 225 224 223 224 223 222 221 218 215 212 212 220 226 231 234 239 243 233 233 240 238 241 235 231 238 234 214 197 190 189 186 185 186 185 194 198 179 191 197 176 175 180 176 178 182 185 187 184 183 185
276 274 272 270 270 268 268 268 268 268 269 269 269 270 269 269 269 269 270 272 273 275 278 281 282 284 280 277 280 263 245 238 236 235 232 230 231 231 227 225 224 223 223 221 219 220 219 212 211 220 224 227 229 231 244 233 227 232 235 239 237 228 229 222 203 193 191 192 187 186 193 197 202 196 179 195 199 177 179 184 180 182 187 190 193 190 187 186
280 278 274 272 270 268 267 267 266 267 268 268 268 269 269 269 267 268 269 269 271 271 273 277 280 282 278 277 286 269 252 243 237 235 233 229 228 230 229 227 224 224 225 222 217 218 219 213 214 222 224 225 227 232 242 232 223 226 231 233 231 229 221 202 192 189 190 192 185 190 208 206 195 190 187 194 191 180 183 187 186 186 190 196 199 198 193 190
283 281 279 276 273 270 268 266 266 265 265 266 267 268 268 268 267 267 267 267 269 269 270 272 275 282 283 282 279 269 258 248 240 234 231 227 226 229 230 227 224 224 225 224 218 215 212 209 214 217 218 221 225 234 238 229 223 223 227 226 222 228 217 189 191 193 192 192 187 196 216 206 183 185 190 193 186 182 186 189 191 191 193 200 203 205 203 199
287 284 282 281 278 275 271 268 267 264 264 265 265 266 267 267 267 266 266 267 267 268 269 270 271 278 284 287 282 276 269 251 237 233 229 224 221 224 231 229 224 224 225 223 219 215 210 208 212 213 213 218 223 229 233 226 222 219 223 225 218 221 211 188 193 199 197 195 192 202 216 201 178 182 187 193 187 183 189 193 194 195 196 201 206 208 211 210
288 286 284 283 282 280 278 274 271 267 265 265 264 265 265 266 266 266 265 265 265 266 267 267 270 275 278 280 279 285 281 257 234 230 229 222 214 210 224 229 223 223 223 223 224 222 218 214 212 213 215 218 218 219 225 223 216 213 217 222 220 219 209 191 195 202 202 198 197 205 216 210 177 180 188 193 190 187 191 195 196 199 199 203 209 210 214 220
288 286 285 283 283 282 281 280 277 273 269 267 266 264 264 266 265 265 265 263 263 262 264 269 268 271 287 278 267 268 256 249 233 227 231 224 212 204 214 224 223 221 219 219 223 221 217 215 212 213 215 216 214 214 220 221 214 212 212 215 221 222 213 200 197 201 201 199 201 205 212 212 183 181 192 193 193 195 195 198 199 201 203 206 212 213 217 224
288 286 283 282 282 281 281 281 280 279 275 272 270 268 267 267 266 267 265 260 259 259 262 272 259 246 277 286 262 245 237 245 239 228 230 227 217 207 206 210 213 215 209 209 219 214 208 208 209 212 214 213 212 213 217 220 220 219 215 215 223 226 218 207 200 198 198 201 204 207 209 210 195 185 194 196 198 201 200 201 202 203 206 208 213 215 219 225
289 287 284 281 279 279 279 280 281 281 280 277 275 274 273 270 270 272 268 260 257 256 251 255 255 242 236 252 262 267 262 267 260 229 220 228 220 203 200 199 199 207 202 201 213 210 203 207 211 212 213 211 212 214 217 221 225 226 220 218 223 227 221 211 206 197 197 205 207 208 210 211 206 195 196 201 201 205 205 204 205 206 208 210 214 216 219 226
289 288 287 283 280 277 277 277 278 279 281 281 278 275 271 271 271 267 267 267 261 256 249 245 252 252 240 237 242 250 259 266 259 231 218 226 217 199 201 198 195 204 205 200 206 204 204 213 215 214 213 212 214 217 219 222 227 230 227 222 223 227 221 210 208 197 193 207 210 210 212 212 212 207 204 207 206 207 208 208 208 209 210 213 216 216 218 224
289 288 288 286 283 278 277 276 275 276 279 281 280 276 271 271 271 267 269 272 263 255 254 246 244 250 247 240 237 236 244 249 246 233 222 219 210 201 204 202 200 205 205 201 202 201 207 218 217 214 215 215 217 219 220 223 227 231 231 226 226 229 222 208 207 198 191 205 212 211 215 214 213 213 211 211 211 212 210 211 212 212 213 215 218 219 218 222
288 287 286 287 285 281 278 276 275 275 276 277 278 277 275 272 272 272 273 274 269 255 253 251 245 247 247 245 242 238 240 243 241 231 222 217 210 203 204 205 206 207 206 204 204 204 210 218 216 213 215 216 217 219 219 222 226 229 230 226 225 227 221 209 204 199 193 204 215 214 218 220 216 216 217 215 213 214 214 214 215 216 217 217 218 223 224 225
287 285 284 283 284 282 278 276 276 275 275 275 275 276 277 275 273 275 276 278 278 268 254 251 247 245 243 240 240 238 239 242 241 231 221 220 211 203 207 209 209 210 210 208 208 213 217 218 214 212 215 216 217 219 217 219 223 227 228 225 224 223 220 216 202 194 198 211 220 218 223 226 220 216 215 215 215 216 218 217 217 218 220 220 218 223 229 229
287 285 282 280 281 281 278 275 274 274 274 273 273 275 275 276 277 278 283 285 285 281 267 248 239 239 237 232 233 237 239 239 239 230 220 224 215 203 209 211 213 215 212 211 213 219 223 217 212 212 214 215 216 218 216 217 221 225 226 225 226 223 220 220 199 188 204 219 220 218 223 228 221 219 217 215 216 217 218 218 220 220 219 222 221 220 226 228
285 283 281 279 277 278 278 275 271 271 272 270 271 273 273 277 277 280 290 290 281 276 263 242 231 233 232 231 231 231 239 243 241 229 216 224 218 201 209 213 214 218 214 213 217 222 223 216 213 213 213 214 216 219 218 216 221 224 223 221 226 229 228 226 207 195 210 221 218 217 224 231 222 221 222 219 217 216 217 218 221 225 223 226 228 225 226 226
282 280 278 276 274 273 273 272 270 267 268 268 268 270 272 275 274 283 297 287 274 260 241 229 223 227 221 225 225 215 228 242 236 225 210 218 218 201 209 215 213 219 214 213 219 220 218 214 214 213 212 214 216 219 217 215 221 225 221 218 223 229 232 233 221 212 218 221 220 220 224 233 231 226 224 220 220 216 215 218 220 225 228 231 234 232 232 233
280 278 275 273 272 270 268 269 266 262 263 263 264 266 266 265 264 272 288 277 255 189 218 223 221 222 209 214 218 208 214 212 212 221 206 212 216 201 210 217 213 220 213 212 221 218 214 214 214 211 210 215 216 217 215 214 220 224 221 220 222 226 231 236 231 223 222 221 222 221 221 230 234 230 224 218 220 217 213 217 221 223 228 233 237 235 237 241
279 276 274 269 268 269 267 268 264 256 257 258 259 258 254 254 251 249 256 257 235 212 230 224 217 219 209 208 208 198 209 211 209 222 201 206 211 199 210 219 215 223 217 217 225 221 218 216 213 212 212 215 216 213 213 215 220 223 223 227 227 224 227 234 235 227 226 229 228 223 221 229 233 225 221 216 219 219 215 217 221 223 225 231 237 237 236 240
278 276 274 268 265 266 266 268 266 257 252 251 250 246 241 238 223 229 238 231 242 244 230 218 212 211 203 200 199 195 204 209 199 195 188 200 208 200 211 220 217 225 222 221 227 225 224 216 213 215 214 213 214 214 216 218 222 223 226 231 234 230 226 233 236 228 226 230 231 228 222 224 232 223 218 219 220 220 217 217 219 222 225 227 231 233 231 234
278 276 274 271 265 263 264 266 264 259 251 243 241 236 230 224 214 226 233 227 247 233 208 215 210 197 195 194 198 200 202 203 198 190 186 195 202 200 207 214 214 222 223 221 223 223 224 216 211 216 215 211 214 218 219 219 221 222 224 227 231 232 227 230 232 227 227 229 229 230 225 223 230 226 219 222 224 220 217 218 217 220 227 230 228 229 230 230
279 276 275 273 267 261 263 264 261 257 250 239 233 226 216 217 222 226 225 228 243 211 198 210 199 191 197 199 204 204 200 202 202 197 193 193 197 201 204 206 204 209 216 217 216 218 222 221 213 214 216 211 211 217 217 215 216 217 221 221 221 223 222 222 224 224 229 231 228 228 227 227 228 230 230 227 225 221 216 217 216 218 224 229 231 231 227 226
280 277 274 273 269 262 261 263 260 253 245 234 226 217 208 221 229 221 217 218 215 193 202 210 198 194 199 203 210 207 200 205 203 200 199 198 202 205 206 208 205 207 214 213 210 212 218 221 217 214 216 212 209 212 211 208 210 213 215 216 215 218 220 215 219 226 228 230 230 228 231 234 230 233 235 228 225 225 215 213 217 222 220 220 231 238 226 223
281 278 274 271 269 263 257 260 260 251 239 227 219 210 210 227 231 218 217 222 224 231 231 212 202 201 204 208 213 206 201 206 203 201 202 201 206 209 208 211 211 212 218 217 212 212 213 217 214 211 213 211 209 211 211 207 210 213 213 214 216 218 222 219 215 224 230 230 230 227 229 234 232 233 230 222 223 225 215 212 214 219 220 217 231 240 227 219
280 278 275 271 268 263 255 255 257 251 237 223 214 212 217 226 227 221 223 224 227 239 243 220 208 207 209 212 217 212 208 211 206 203 206 205 208 210 209 211 211 211 217 219 215 214 219 223 216 210 211 210 208 210 211 211 213 211 211 216 218 217 223 233 228 226 231 234 231 228 228 230 232 236 225 213 218 221 220 219 216 219 226 223 229 237 234 226
281 279 277 274 270 264 256 252 253 249 235 219 214 220 225 225 222 221 225 225 228 234 234 222 214 213 214 214 218 216 212 216 213 206 209 211 212 214 212 211 211 209 211 216 215 212 220 227 218 210 211 211 210 209 208 211 213 206 210 219 220 218 224 234 237 232 234 239 232 230 233 230 229 234 230 218 214 217 219 219 221 225 227 221 218 229 239 231
284 280 278 277 272 267 259 252 250 245 231 217 220 227 229 229 227 225 226 230 232 234 234 229 220 216 216 214 214 212 209 214 214 209 212 213 215 217 215 212 212 209 210 215 219 217 222 230 218 208 211 211 210 211 210 212 213 209 213 218 218 221 225 230 236 233 231 238 232 233 237 230 223 225 227 224 218 215 216 215 220 223 221 219 220 230 245 232
286 282 281 276 269 267 264 255 249 244 230 220 227 232 232 233 232 229 230 235 237 236 237 236 226 218 218 218 216 208 204 208 209 210 214 215 215 215 212 212 212 210 209 213 222 224 222 232 224 210 212 209 203 208 213 213 215 218 220 217 213 217 222 224 229 231 229 233 232 234 237 233 225 220 221 225 222 217 216 214 220 226 221 219 224 234 249 239
288 287 287 277 270 267 263 255 249 242 229 225 232 235 235 236 234 231 232 236 240 239 238 237 230 225 222 222 222 212 205 207 210 212 216 216 217 213 209 211 210 209 208 210 219 224 217 227 231 209 202 202 198 204 212 211 212 218 224 222 216 218 221 221 223 229 233 234 231 233 237 236 229 222 218 222 221 218 218 218 223 229 225 223 224 229 239 243
288 286 282 275 273 270 263 255 245 237 230 230 235 238 240 240 238 235 232 234 238 238 236 235 233 232 229 226 227 223 215 213 213 215 216 216 216 210 205 207 208 206 204 205 214 223 216 215 227 209 190 197 205 205 209 211 207 210 218 222 219 218 220 222 223 225 229 239 238 229 234 236 233 226 219 220 222 220 221 223 223 223 225 226 223 222 232 248
286 283 278 274 273 270 264 256 243 237 236 238 241 241 242 243 243 240 236 234 237 237 236 236 235 235 235 231 229 229 227 221 215 216 218 215 212 206 200 204 206 203 201 203 209 216 215 209 220 214 194 200 212 210 210 215 212 209 213 218 220 217 215 219 224 222 224 233 238 239 241 232 229 229 223 221 225 224 220 220 218 217 220 221 221 223 232 247
279 274 265 261 268 266 259 253 246 241 241 242 243 244 243 244 244 242 238 235 236 237 237 237 237 237 238 236 231 229 231 228 219 216 220 217 210 206 202 203 205 202 200 204 208 210 215 215 219 222 211 208 215 217 215 218 219 218 215 215 220 221 218 220 223 220 222 228 231 238 246 232 225 229 222 215 219 221 215 209 210 211 212 218 228 228 226 243
274 265 250 243 257 262 258 255 250 243 243 245 246 247 246 245 243 241 238 236 234 234 234 234 236 237 238 239 237 232 230 231 226 219 220 220 211 208 208 202 203 204 202 205 207 205 211 219 219 224 228 221 217 219 220 217 218 222 221 215 217 220 221 223 223 222 227 228 227 231 237 233 232 235 228 216 213 216 215 211 211 215 218 224 233 229 224 240
273 269 263 256 255 253 249 249 249 247 247 249 249 247 245 243 241 239 236 234 232 230 231 232 233 234 235 236 236 234 230 229 227 221 219 220 215 210 207 198 199 204 203 204 204 200 205 214 217 220 227 221 211 211 213 211 211 219 221 216 217 220 220 223 226 226 230 230 229 233 235 231 231 232 233 228 210 210 217 219 221 224 226 227 234 242 238 237
279 277 274 266 259 255 247 242 246 252 252 251 250 246 244 242 239 237 236 236 233 231 234 235 233 232 232 232 233 233 232 231 228 222 220 221 219 209 202 196 196 200 205 207 204 202 206 210 212 216 220 211 207 207 205 205 207 214 220 220 219 219 218 221 226 227 227 227 231 237 239 233 227 223 226 225 208 204 212 217 225 229 228 228 233 241 238 234
284 278 268 261 259 256 252 245 243 250 255 256 254 248 243 241 238 236 237 238 237 235 236 238 235 232 230 228 230 231 230 231 232 226 221 220 218 211 205 206 203 201 209 212 206 206 215 215 212 216 223 221 218 216 210 209 210 212 218 222 222 220 218 221 226 228 229 228 232 236 238 241 239 228 224 223 217 218 222 227 237 234 224 221 224 230 235 239
280 270 260 265 259 247 250 250 242 244 248 251 256 251 243 241 240 238 238 239 239 236 234 236 233 230 228 224 226 229 228 229 231 230 226 222 221 219 216 216 214 211 213 214 209 208 219 224 217 216 222 227 229 228 220 219 221 216 215 220 223 223 221 221 224 228 230 231 233 233 231 238 243 239 233 227 223 226 232 235 238 231 221 219 224 235 241 244
274 267 256 261 265 257 256 254 249 252 246 240 250 252 244 241 239 240 241 238 235 231 231 234 231 229 229 224 224 227 226 225 227 228 228 226 224 224 222 217 215 216 214 212 213 212 217 226 220 215 220 227 233 238 232 228 229 224 221 222 223 225 226 226 227 229 230 233 236 234 230 233 236 237 238 237 233 230 231 233 232 226 224 227 232 240 246 249
271 268 259 256 262 264 262 260 265 267 252 240 244 242 239 246 243 243 246 244 240 231 226 230 231 228 229 227 225 227 224 222 224 224 224 226 224 224 222 214 209 211 210 209 213 213 216 224 222 220 227 228 230 236 236 234 232 228 227 227 226 226 228 229 231 231 231 236 239 238 237 236 234 234 235 238 240 238 231 230 229 226 228 231 233 238 243 250
267 266 265 262 259 256 258 264 271 273 260 249 247 241 240 252 255 253 251 252 257 243 226 228 232 229 229 228 228 228 224 222 225 225 223 223 221 221 221 213 206 206 207 208 211 210 216 224 224 227 237 237 230 231 234 235 236 234 233 231 228 229 230 230 231 232 233 236 239 239 241 240 236 234 233 234 238 241 238 232 227 225 227 231 234 239 239 242
262 260 262 268 266 259 260 267 271 271 262 250 244 243 245 249 253 256 248 241 246 249 244 243 234 226 229 227 226 229 229 227 231 230 225 222 219 217 218 216 210 206 205 206 210 209 212 221 224 225 235 239 233 231 233 233 236 239 238 235 231 230 231 230 230 230 232 235 237 239 242 241 236 234 235 232 232 236 239 238 234 230 229 231 238 242 241 240
261 262 260 264 267 263 262 266 267 265 259 251 244 242 245 246 246 251 246 232 224 237 266 265 236 226 231 225 224 226 225 228 231 227 225 226 220 216 217 218 218 216 209 206 210 210 208 215 220 220 229 236 234 234 236 233 235 237 235 234 234 233 232 232 231 231 231 232 235 238 241 242 239 236 236 235 232 233 237 238 238 238 238 241 246 246 247 246
Height
3170 3169 3169 3168 3167 3166 3165 3164 3163 3162 3161 3161 3160 3160 3159 3159 3159 3159 3159 3158 3158 3157 3157 3156 3155 3155 3154 3153 3153 3153 3153 3154 3154 3156 3157 3158 3159 3160 3162 3164 3165 3167 3169 3171 3172 3173 3174 3175 3175 3176 3176 3177 3177 3177 3177 3177 3177 3178 3178 3176 3174 3173 3171 3172 3174 3174 3176 3176 3177 3177 3178 3179 3178 3179 3178 3179 3180 3180 3181 3182 3182 3183 3184 3185 3183 3183 3185 3186
3169 3168 3167 3167 3166 3165 3164 3163 3162 3161 3160 3159 3159 3158 3158 3157 3157 3157 3157 3157 3156 3156 3155 3154 3154 3153 3153 3152 3151 3151 3152 3152 3153 3154 3154 3155 3157 3159 3160 3162 3163 3165 3167 3169 3171 3172 3173 3174 3175 3176 3176 3177 3177 3177 3178 3177 3177 3177 3177 3175 3174 3173 3172 3174 3175 3175 3176 3176 3177 3178 3178 3179 3179 3179 3178 3180 3181 3181 3182 3182 3182 3183 3183 3183 3183 3184 3186 3187
3167 3166 3166 3165 3164 3164 3163 3162 3161 3160 3159 3158 3157 3157 3156 3156 3155 3155 3155 3155 3155 3154 3153 3153 3152 3152 3151 3151 3150 3150 3150 3151 3152 3152 3151 3153 3155 3156 3158 3160 3161 3163 3166 3168 3169 3171 3172 3173 3174 3175 3176 3177 3178 3179 3179 3178 3177 3177 3177 3174 3172 3173 3174 3175 3175 3176 3176 3176 3178 3178 3179 3179 3179 3180 3179 3181 3182 3182 3183 3182 3183 3183 3182 3182 3183 3184 3185 3187
3166 3165 3164 3164 3163 3162 3161 3161 3160 3159 3158 3157 3156 3156 3155 3155 3154 3154 3153 3153 3153 3153 3152 3151 3151 3150 3150 3149 3149 3149 3149 3151 3151 3149 3150 3152 3153 3154 3156 3158 3159 3161 3164 3166 3167 3169 3171 3172 3173 3174 3175 3177 3178 3179 3179 3179 3177 3177 3176 3174 3173 3174 3175 3175 3176 3176 3176 3177 3178 3178 3179 3179 3180 3180 3180 3182 3183 3183 3183 3183 3183 3183 3182 3182 3183 3184 3186 3187
3164 3163 3163 3162 3161 3161 3160 3159 3158 3158 3157 3156 3156 3155 3154 3154 3153 3152 3152 3151 3151 3151 3151 3150 3149 3149 3149 3148 3148 3148 3149 3151 3148 3146 3149 3150 3151 3152 3154 3156 3157 3159 3162 3164 3166 3168 3169 3171 3172 3173 3174 3176 3178 3178 3178 3178 3177 3176 3175 3175 3175 3175 3175 3175 3176 3177 3177 3177 3178 3178 3179 3179 3180 3180 3181 3183 3183 3183 3184 3183 3183 3182 3182 3182 3183 3185 3186 3187
3162 3161 3161 3160 3159 3159 3158 3157 3157 3156 3155 3155 3154 3154 3153 3152 3152 3151 3150 3150 3149 3149 3149 3148 3148 3148 3148 3147 3147 3147 3148 3149 3146 3146 3148 3148 3149 3150 3152 3154 3156 3158 3160 3161 3164 3166 3168 3170 3171 3172 3173 3175 3177 3177 3177 3177 3177 3176 3175 3175 3175 3176 3176 3176 3176 3176 3177 3178 3178 3179 3179 3179 3180 3180 3182 3183 3183 3184 3184 3183 3183 3182 3182 3183 3184 3185 3186 3187
3160 3159 3159 3158 3157 3157 3156 3155 3155 3154 3154 3153 3153 3152 3152 3151 3151 3150 3149 3149 3148 3148 3147 3147 3147 3146 3146 3146 3146 3146 3146 3147 3146 3145 3146 3146 3147 3148 3150 3152 3154 3156 3157 3159 3162 3164 3166 3168 3170 3172 3173 3175 3176 3176 3176 3176 3177 3176 3175 3175 3176 3176 3176 3176 3176 3176 3177 3178 3178 3179 3179 3179 3180 3181 3181 3183 3183 3184 3184 3183 3183 3182 3182 3183 3184 3185 3186 3188
3158 3157 3157 3156 3155 3155 3154 3153 3153 3153 3152 3152 3151 3151 3150 3150 3149 3149 3148 3147 3147 3146 3146 3145 3145 3145 3145 3145 3145 3144 3145 3147 3145 3142 3144 3145 3145 3147 3148 3150 3152 3154 3156 3158 3160 3163 3165 3167 3169 3171 3173 3174 3175 3176 3176 3176 3175 3175 3175 3175 3175 3175 3175 3176 3176 3176 3177 3178 3178 3179 3179 3179 3180 3180 3181 3182 3182 3183 3184 3183 3183 3182 3182 3184 3184 3185 3187 3188
3156 3155 3155 3154 3153 3153 3152 3151 3151 3151 3150 3150 3150 3149 3149 3148 3148 3148 3147 3146 3146 3145 3145 3144 3143 3143 3143 3143 3143 3143 3144 3145 3142 3140 3143 3144 3144 3145 3147 3149 3150 3152 3154 3156 3159 3161 3163 3165 3167 3170 3172 3174 3175 3174 3175 3175 3173 3173 3174 3174 3175 3174 3175 3175 3175 3176 3176 3177 3178 3178 3179 3179 3180 3180 3181 3182 3182 3182 3183 3183 3182 3182 3183 3184 3184 3185 3186 3187
3153 3153 3152 3152 3151 3151 3150 3149 3149 3149 3148 3148 3148 3148 3147 3147 3147 3146 3145 3145 3144 3144 3143 3143 3142 3142 3142 3142 3142 3142 3142 3142 3140 3140 3141 3142 3143 3144 3145 3147 3148 3150 3152 3155 3157 3159 3161 3164 3167 3170 3172 3173 3174 3173 3174 3173 3172 3172 3173 3173 3173 3174 3174 3174 3175 3175 3176 3177 3177 3178 3179 3179 3179 3179 3181 3182 3181 3182 3183 3183 3182 3182 3183 3184 3184 3185 3186 3187
3150 3150 3150 3149 3149 3149 3148 3147 3147 3146 3146 3146 3146 3146 3146 3145 3145 3145 3144 3144 3143 3143 3142 3141 3141 3140 3140 3140 3139 3140 3140 3140 3139 3138 3139 3141 3142 3143 3144 3145 3147 3149 3151 3153 3155 3157 3160 3163 3166 3169 3170 3171 3172 3172 3172 3172 3172 3172 3172 3172 3172 3173 3173 3173 3174 3174 3175 3176 3176 3178 3178 3179 3179 3179 3180 3180 3180 3181 3182 3182 3183 3183 3183 3184 3185 3185 3186 3187
3147 3147 3146 3146 3146 3146 3145 3145 3145 3144 3144 3144 3144 3144 3144 3144 3143 3143 3143 3142 3142 3141 3140 3140 3139 3139 3138 3137 3137 3137 3137 3137 3137 3137 3138 3139 3140 3141 3143 3144 3146 3148 3149 3151 3154 3156 3158 3161 3164 3167 3169 3170 3171 3171 3171 3170 3171 3172 3172 3172 3171 3172 3172 3172 3173 3173 3174 3175 3175 3177 3178 3178 3178 3179 3179 3178 3178 3180 3182 3182 3183 3183 3184 3184 3185 3185 3186 3187
3145 3144 3144 3143 3143 3143 3142 3142 3142 3142 3142 3142 3142 3141 3141 3142 3141 3141 3141 3141 3140 3140 3139 3138 3138 3137 3136 3135 3135 3135 3134 3135 3136 3136 3136 3137 3138 3140 3141 3143 3144 3146 3148 3150 3152 3155 3157 3159 3162 3165 3167 3169 3169 3169 3169 3169 3170 3170 3171 3170 3170 3170 3169 3170 3171 3172 3173 3173 3174 3176 3176 3177 3177 3178 3179 3177 3177 3179 3181 3182 3182 3183 3184 3184 3185 3185 3186 3187
3142 3142 3141 3140 3140 3140 3139 3139 3139 3139 3139 3139 3139 3139 3139 3139 3139 3139 3139 3139 3139 3138 3138 3137 3136 3135 3134 3133 3134 3133 3132 3133 3134 3134 3134 3135 3137 3138 3140 3142 3143 3144 3146 3148 3151 3153 3156 3158 3161 3163 3165 3166 3167 3168 3168 3168 3168 3169 3169 3169 3168 3167 3167 3168 3170 3171 3172 3172 3173 3175 3175 3174 3175 3177 3178 3177 3177 3178 3180 3181 3182 3183 3183 3184 3184 3185 3186 3187
3140 3139 3138 3138 3137 3137 3136 3136 3136 3136 3136 3136 3136 3137 3137 3137 3137 3137 3136 3136 3136 3136 3136 3135 3134 3133 3132 3132 3132 3131 3131 3131 3132 3132 3133 3134 3135 3137 3138 3140 3142 3143 3145 3146 3149 3151 3154 3157 3158 3159 3161 3164 3165 3166 3166 3167 3166 3166 3166 3165 3165 3165 3165 3167 3169 3170 3171 3171 3173 3174 3173 3173 3173 3175 3177 3176 3177 3178 3179 3180 3181 3182 3183 3183 3184 3184 3185 3186
3137 3137 3136 3135 3135 3134 3134 3133 3133 3133 3133 3133 3134 3134 3134 3134 3134 3134 3134 3134 3134 3134 3134 3133 3133 3132 3130 3130 3129 3129 3129 3129 3130 3130 3131 3132 3134 3136 3137 3138 3140 3141 3143 3145 3147 3149 3151 3153 3155 3157 3160 3163 3163 3164 3165 3164 3162 3163 3163 3162 3163 3164 3164 3166 3167 3169 3170 3170 3172 3173 3172 3172 3173 3175 3176 3176 3176 3177 3179 3180 3180 3181 3182 3183 3183 3184 3185 3185
3135 3134 3134 3133 3132 3132 3131 3131 3131 3131 3131 3130 3131 3131 3131 3131 3131 3131 3131 3132 3132 3132 3132 3132 3131 3131 3130 3128 3127 3128 3128 3127 3128 3129 3129 3131 3132 3134 3135 3136 3138 3140 3142 3144 3145 3147 3149 3150 3153 3155 3158 3159 3160 3162 3161 3158 3157 3158 3159 3160 3161 3161 3162 3164 3165 3167 3169 3169 3171 3171 3171 3172 3173 3174 3175 3175 3176 3177 3178 3179 3180 3180 3181 3182 3182 3183 3184 3184
3132 3131 3131 3131 3130 3129 3129 3129 3128 3128 3128 3128 3128 3128 3128 3128 3128 3128 3128 3129 3129 3129 3130 3130 3130 3130 3129 3126 3126 3128 3127 3126 3127 3127 3128 3129 3130 3132 3134 3135 3137 3138 3140 3142 3143 3145 3147 3149 3152 3153 3154 3155 3156 3158 3155 3153 3154 3154 3155 3158 3159 3159 3159 3161 3163 3165 3167 3168 3169 3170 3171 3171 3172 3173 3174 3174 3175 3176 3177 3178 3179 3180 3180 3180 3180 3181 3182 3183
3130 3129 3128 3128 3127 3127 3126 3126 3126 3126 3126 3126 3125 3126 3126 3125 3125 3125 3125 3125 3125 3126 3128 3127 3125 3128 3127 3125 3125 3126 3125 3125 3126 3126 3127 3128 3129 3130 3132 3134 3136 3137 3139 3140 3141 3143 3145 3147 3149 3148 3148 3149 3151 3152 3152 3152 3153 3153 3154 3156 3157 3156 3156 3158 3161 3163 3165 3167 3167 3168 3169 3170 3171 3172 3173 3173 3174 3175 3176 3177 3178 3178 3179 3179 3179 3180 3181 3182
3127 3126 3126 3126 3125 3124 3123 3124 3124 3123 3124 3124 3123 3124 3124 3122 3123 3123 3120 3120 3122 3123 3124 3123 3121 3123 3125 3125 3126 3125 3123 3123 3124 3125 3126 3127 3127 3129 3131 3133 3135 3136 3137 3139 3139 3141 3144 3144 3143 3142 3143 3146 3148 3150 3152 3153 3152 3152 3152 3153 3155 3154 3154 3157 3160 3161 3163 3165 3165 3167 3168 3169 3169 3170 3171 3172 3173 3174 3174 3175 3176 3177 3177 3178 3178 3178 3179 3180
3125 3124 3123 3123 3123 3122 3121 3121 3121 3121 3121 3122 3122 3122 3121 3120 3121 3120 3116 3116 3118 3118 3119 3120 3119 3118 3121 3123 3125 3125 3122 3121 3122 3124 3125 3125 3126 3128 3129 3131 3133 3133 3134 3138 3139 3140 3141 3139 3138 3140 3143 3146 3148 3150 3152 3152 3151 3150 3149 3149 3151 3152 3152 3155 3158 3159 3161 3163 3164 3165 3166 3167 3168 3168 3169 3170 3171 3172 3173 3173 3174 3175 3176 3176 3177 3177 3178 3179
3122 3121 3121 3121 3121 3119 3119 3118 3119 3119 3119 3119 3119 3119 3119 3119 3119 3117 3115 3112 3112 3114 3114 3115 3116 3114 3116 3119 3120 3121 3120 3120 3121 3122 3123 3124 3125 3127 3128 3129 3130 3131 3133 3136 3137 3137 3137 3135 3136 3140 3143 3145 3147 3148 3150 3150 3150 3149 3147 3147 3148 3150 3149 3152 3155 3157 3159 3161 3162 3163 3164 3164 3166 3167 3167 3168 3169 3170 3171 3172 3172 3173 3174 3175 3175 3175 3176 3177
3120 3119 3119 3118 3118 3117 3116 3116 3116 3117 3117 3117 3117 3117 3117 3117 3116 3115 3113 3108 3107 3110 3109 3109 3111 3111 3112 3115 3116 3116 3116 3116 3118 3119 3121 3121 3122 3125 3126 3127 3128 3130 3131 3132 3133 3133 3131 3131 3135 3140 3142 3143 3145 3145 3147 3148 3148 3147 3145 3145 3147 3147 3147 3149 3153 3156 3158 3160 3161 3162 3162 3163 3163 3164 3165 3166 3167 3168 3169 3170 3171 3171 3172 3172 3173 3174 3174 3174
3117 3117 3116 3116 3116 3115 3114 3114 3114 3115 3115 3114 3114 3114 3114 3115 3115 3113 3111 3107 3102 3103 3105 3105 3106 3107 3109 3111 3111 3111 3112 3114 3115 3117 3118 3117 3120 3123 3124 3125 3127 3128 3128 3129 3130 3129 3129 3131 3135 3138 3139 3141 3142 3142 3144 3145 3145 3144 3143 3143 3144 3145 3145 3148 3151 3154 3157 3159 3159 3161 3161 3160 3160 3161 3162 3163 3165 3166 3166 3167 3168 3169 3170 3170 3172 3172 3171 3172
3114 3114 3113 3113 3113 3113 3111 3111 3112 3113 3113 3113 3112 3112 3112 3112 3113 3112 3109 3106 3101 3099 3100 3101 3102 3103 3104 3105 3106 3108 3110 3110 3110 3114 3115 3114 3117 3120 3122 3124 3124 3124 3125 3126 3128 3127 3128 3130 3133 3134 3136 3138 3139 3139 3140 3141 3142 3142 3141 3141 3142 3142 3143 3145 3148 3152 3156 3156 3157 3159 3158 3156 3157 3158 3159 3160 3162 3163 3164 3165 3166 3167 3168 3168 3169 3169 3169 3170
3111 3110 3111 3110 3110 3110 3109 3108 3110 3110 3110 3111 3110 3110 3111 3111 3111 3111 3109 3106 3101 3096 3096 3097 3098 3098 3099 3100 3103 3106 3108 3105 3105 3110 3112 3111 3114 3118 3120 3121 3121 3121 3123 3125 3126 3125 3125 3128 3130 3131 3133 3135 3136 3136 3137 3139 3139 3138 3138 3141 3142 3142 3142 3143 3146 3149 3151 3152 3154 3156 3154 3153 3154 3156 3156 3158 3158 3160 3161 3162 3163 3164 3164 3165 3165 3166 3167 3167
3107 3107 3107 3107 3106 3107 3107 3106 3106 3108 3108 3108 3108 3109 3110 3110 3110 3110 3110 3106 3098 3092 3092 3094 3095 3095 3096 3097 3099 3104 3105 3101 3102 3105 3107 3108 3110 3115 3117 3117 3118 3118 3121 3123 3121 3119 3122 3125 3126 3128 3130 3131 3132 3132 3134 3137 3137 3134 3136 3140 3141 3142 3142 3141 3144 3146 3147 3149 3152 3153 3152 3152 3152 3152 3153 3155 3155 3156 3158 3159 3160 3161 3161 3161 3162 3163 3164 3165
3104 3103 3103 3104 3103 3102 3104 3104 3103 3105 3105 3105 3106 3108 3108 3109 3110 3109 3111 3107 3095 3089 3089 3089 3091 3091 3093 3095 3095 3099 3100 3099 3100 3101 3104 3106 3107 3112 3113 3114 3116 3116 3118 3119 3115 3116 3119 3120 3122 3124 3126 3127 3127 3128 3132 3135 3134 3134 3137 3138 3139 3141 3141 3140 3142 3143 3145 3147 3148 3149 3151 3150 3149 3149 3151 3152 3152 3152 3154 3155 3157 3158 3158 3159 3159 3160 3161 3162
3100 3098 3099 3101 3100 3099 3100 3100 3101 3102 3102 3103 3105 3105 3106 3108 3108 3109 3112 3105 3092 3088 3087 3086 3088 3089 3091 3092 3093 3096 3097 3098 3100 3099 3101 3103 3104 3109 3110 3111 3114 3115 3116 3115 3114 3115 3116 3117 3120 3122 3122 3122 3124 3127 3131 3132 3132 3134 3137 3137 3137 3137 3139 3139 3139 3141 3144 3144 3143 3146 3148 3146 3144 3146 3148 3147 3148 3148 3150 3152 3154 3155 3156 3157 3158 3159 3159 3159
3096 3095 3095 3096 3097 3096 3096 3097 3097 3098 3100 3101 3102 3103 3104 3105 3107 3108 3107 3098 3089 3087 3084 3083 3086 3087 3088 3090 3091 3093 3095 3097 3098 3097 3099 3101 3102 3106 3108 3110 3112 3113 3113 3113 3112 3113 3114 3115 3118 3118 3118 3121 3124 3126 3129 3130 3132 3135 3136 3135 3134 3133 3135 3136 3136 3139 3140 3138 3140 3142 3144 3143 3140 3141 3143 3143 3143 3145 3147 3150 3151 3152 3152 3153 3155 3157 3159 3158
3093 3092 3091 3092 3093 3093 3094 3094 3094 3096 3097 3098 3100 3101 3102 3103 3105 3104 3096 3090 3088 3085 3081 3082 3085 3085 3086 3089 3090 3090 3092 3095 3096 3095 3097 3099 3100 3102 3105 3107 3108 3109 3110 3108 3109 3111 3112 3112 3113 3114 3116 3119 3123 3124 3126 3128 3130 3133 3133 3133 3132 3131 3133 3134 3133 3134 3131 3130 3135 3138 3139 3140 3136 3135 3137 3139 3140 3142 3144 3146 3148 3149 3150 3151 3152 3155 3157 3157
3089 3088 3087 3088 3089 3090 3091 3090 3091 3094 3094 3095 3098 3098 3100 3102 3099 3093 3089 3088 3086 3081 3079 3081 3082 3083 3085 3087 3088 3088 3089 3091 3092 3093 3094 3095 3097 3097 3098 3100 3102 3103 3102 3103 3105 3107 3108 3108 3109 3111 3113 3115 3118 3120 3122 3125 3127 3129 3130 3129 3129 3128 3129 3129 3127 3126 3124 3124 3129 3133 3135 3133 3130 3132 3135 3136 3138 3140 3141 3143 3145 3146 3146 3148 3150 3151 3154 3154
3084 3084 3084 3084 3084 3087 3087 3086 3088 3091 3090 3093 3095 3095 3099 3097 3086 3082 3086 3086 3082 3078 3079 3080 3080 3081 3083 3085 3086 3086 3087 3088 3089 3090 3092 3093 3093 3094 3095 3096 3098 3098 3097 3099 3102 3103 3104 3105 3106 3108 3108 3110 3112 3114 3115 3118 3121 3123 3124 3124 3124 3123 3124 3124 3124 3121 3120 3121 3125 3130 3132 3128 3127 3130 3132 3133 3136 3137 3138 3141 3142 3143 3144 3145 3147 3148 3151 3152
3080 3079 3080 3080 3080 3082 3083 3083 3084 3086 3088 3089 3091 3093 3094 3085 3075 3078 3082 3081 3079 3078 3078 3079 3079 3080 3080 3081 3083 3084 3084 3085 3086 3087 3088 3089 3090 3090 3091 3092 3094 3096 3096 3097 3096 3097 3097 3097 3097 3100 3103 3104 3107 3109 3111 3114 3117 3118 3120 3122 3121 3120 3119 3118 3119 3119 3119 3120 3123 3126 3127 3124 3124 3126 3127 3130 3133 3135 3137 3138 3140 3141 3142 3144 3145 3145 3147 3149
3076 3075 3075 3076 3076 3076 3079 3079 3080 3082 3084 3085 3087 3088 3081 3072 3071 3076 3076 3076 3078 3077 3077 3078 3078 3077 3077 3078 3079 3080 3081 3081 3082 3084 3084 3084 3084 3084 3085 3087 3089 3092 3094 3092 3091 3092 3092 3090 3092 3096 3099 3101 3102 3105 3110 3113 3113 3115 3120 3119 3115 3116 3118 3116 3116 3118 3119 3118 3118 3119 3119 3121 3123 3123 3125 3128 3129 3132 3135 3136 3137 3138 3139 3142 3143 3142 3143 3145
3071 3071 3071 3071 3071 3072 3074 3075 3076 3078 3079 3081 3082 3076 3067 3065 3070 3072 3072 3074 3075 3075 3076 3076 3075 3074 3073 3074 3075 3076 3077 3077 3079 3080 3079 3079 3079 3079 3081 3082 3084 3087 3088 3088 3088 3088 3088 3088 3091 3094 3095 3097 3099 3102 3107 3108 3107 3111 3114 3110 3110 3117 3119 3116 3115 3116 3117 3114 3111 3112 3113 3116 3120 3120 3122 3125 3126 3129 3132 3133 3134 3135 3137 3140 3141 3140 3140 3141
3067 3067 3067 3067 3066 3067 3069 3070 3072 3073 3074 3076 3073 3064 3061 3065 3067 3068 3070 3072 3072 3073 3073 3071 3070 3070 3069 3069 3070 3072 3074 3075 3075 3075 3074 3075 3074 3075 3077 3078 3080 3082 3084 3086 3086 3085 3086 3085 3087 3089 3091 3094 3098 3101 3103 3105 3105 3106 3106 3106 3112 3117 3116 3115 3112 3111 3113 3109 3107 3108 3109 3110 3113 3114 3118 3122 3124 3127 3129 3130 3132 3133 3134 3136 3138 3139 3137 3137
3063 3063 3064 3062 3061 3063 3065 3066 3067 3068 3070 3069 3062 3057 3060 3063 3064 3066 3067 3068 3069 3070 3069 3066 3066 3065 3065 3065 3065 3067 3069 3070 3071 3071 3071 3070 3069 3070 3073 3075 3076 3078 3081 3084 3084 3083 3085 3083 3082 3085 3088 3091 3096 3099 3099 3101 3102 3102 3102 3105 3109 3109 3108 3109 3108 3107 3107 3105 3104 3106 3104 3104 3107 3110 3115 3118 3120 3123 3125 3127 3129 3130 3131 3132 3134 3136 3135 3135
3058 3059 3060 3056 3057 3060 3061 3061 3063 3063 3063 3060 3055 3054 3056 3058 3060 3062 3064 3065 3067 3066 3065 3064 3063 3062 3062 3062 3061 3063 3064 3065 3066 3068 3067 3066 3065 3065 3068 3071 3072 3074 3078 3081 3082 3081 3083 3083 3080 3081 3085 3089 3092 3093 3092 3093 3097 3100 3101 3102 3102 3102 3102 3104 3104 3104 3103 3101 3102 3104 3101 3099 3103 3107 3111 3114 3117 3119 3121 3123 3126 3127 3128 3129 3131 3133 3134 3135
3054 3056 3056 3052 3052 3056 3057 3057 3058 3058 3055 3052 3050 3052 3053 3054 3056 3057 3060 3061 3062 3062 3062 3061 3061 3060 3059 3059 3059 3059 3060 3060 3062 3063 3063 3063 3062 3062 3064 3067 3069 3071 3074 3078 3080 3080 3081 3082 3080 3078 3082 3086 3085 3084 3085 3087 3090 3094 3095 3095 3096 3097 3099 3101 3101 3101 3101 3099 3098 3099 3098 3098 3100 3103 3107 3110 3113 3115 3117 3119 3122 3124 3125 3126 3127 3129 3132 3132
3050 3051 3052 3049 3048 3051 3053 3053 3052 3052 3050 3047 3047 3048 3050 3052 3053 3054 3055 3057 3057 3057 3058 3058 3058 3057 3056 3057 3056 3056 3056 3056 3057 3059 3059 3059 3059 3059 3061 3064 3066 3068 3071 3074 3076 3077 3077 3079 3079 3077 3077 3079 3078 3078 3082 3085 3086 3088 3090 3091 3092 3093 3095 3097 3094 3094 3098 3098 3096 3096 3094 3095 3098 3101 3103 3107 3111 3113 3114 3116 3118 3120 3122 3124 3125 3126 3128 3129
3046 3047 3049 3046 3044 3047 3048 3047 3047 3048 3046 3043 3043 3045 3046 3048 3048 3049 3051 3052 3052 3053 3054 3054 3053 3053 3054 3053 3054 3054 3054 3052 3053 3054 3054 3055 3056 3057 3058 3061 3063 3065 3068 3069 3071 3074 3076 3076 3076 3075 3072 3074 3076 3078 3081 3083 3085 3086 3086 3088 3091 3090 3090 3089 3087 3090 3094 3094 3095 3096 3092 3091 3097 3099 3101 3104 3108 3110 3112 3114 3116 3118 3120 3122 3124 3124 3125 3126
3041 3041 3043 3043 3041 3043 3044 3041 3042 3043 3040 3039 3040 3042 3043 3043 3044 3045 3046 3047 3048 3048 3049 3049 3049 3050 3050 3051 3051 3052 3051 3050 3050 3051 3052 3053 3054 3055 3057 3058 3060 3063 3064 3066 3068 3071 3073 3073 3073 3073 3072 3072 3074 3077 3078 3080 3082 3082 3081 3084 3086 3085 3086 3087 3087 3091 3091 3088 3091 3092 3088 3090 3097 3099 3100 3103 3105 3108 3111 3113 3115 3117 3119 3121 3122 3122 3123 3123
3035 3034 3036 3039 3038 3038 3038 3036 3037 3038 3037 3037 3037 3036 3038 3039 3039 3040 3041 3042 3043 3044 3044 3044 3045 3047 3047 3048 3049 3049 3049 3048 3048 3049 3050 3051 3052 3054 3055 3056 3057 3059 3061 3063 3064 3066 3068 3068 3069 3070 3070 3069 3069 3071 3072 3074 3076 3076 3075 3078 3080 3081 3084 3086 3087 3090 3087 3085 3089 3086 3082 3088 3096 3099 3100 3102 3103 3106 3109 3112 3114 3115 3117 3119 3120 3120 3121 3121
3031 3030 3031 3034 3034 3032 3032 3032 3034 3034 3034 3034 3032 3032 3033 3032 3032 3034 3036 3037 3038 3040 3039 3039 3042 3043 3044 3046 3046 3045 3046 3046 3045 3047 3048 3049 3050 3052 3053 3053 3054 3057 3059 3059 3061 3063 3063 3065 3066 3065 3062 3062 3061 3062 3064 3067 3070 3072 3073 3074 3075 3077 3081 3083 3085 3084 3081 3084 3088 3082 3079 3087 3094 3096 3098 3100 3102 3105 3108 3110 3111 3112 3114 3116 3117 3118 3118 3119
3027 3027 3028 3031 3031 3028 3027 3028 3030 3030 3030 3030 3028 3027 3028 3027 3028 3030 3031 3032 3033 3035 3036 3036 3038 3039 3040 3041 3042 3042 3043 3043 3044 3045 3045 3046 3047 3049 3050 3051 3053 3054 3055 3055 3058 3060 3061 3060 3061 3061 3059 3058 3059 3060 3063 3066 3067 3068 3070 3072 3073 3074 3077 3080 3080 3077 3078 3083 3084 3081 3083 3088 3090 3092 3094 3096 3099 3102 3105 3108 3108 3109 3111 3112 3114 3115 3115 3116
3024 3024 3026 3028 3027 3025 3024 3024 3025 3026 3025 3025 3024 3023 3024 3024 3025 3026 3026 3027 3029 3030 3032 3032 3033 3034 3034 3036 3037 3038 3039 3042 3042 3042 3043 3044 3045 3047 3048 3050 3051 3051 3051 3053 3055 3057 3057 3056 3056 3058 3059 3059 3060 3061 3064 3064 3063 3064 3067 3069 3071 3072 3074 3075 3074 3073 3078 3080 3077 3079 3086 3088 3087 3089 3091 3093 3096 3098 3101 3104 3106 3107 3108 3109 3111 3112 3112 3113
3022 3021 3023 3024 3023 3022 3021 3021 3021 3020 3019 3019 3019 3019 3020 3021 3022 3022 3022 3023 3025 3026 3027 3027 3028 3029 3030 3032 3034 3034 3036 3038 3038 3039 3041 3042 3043 3044 3045 3046 3048 3049 3049 3052 3054 3054 3055 3054 3053 3056 3058 3059 3060 3060 3062 3062 3061 3062 3065 3066 3068 3069 3070 3070 3070 3072 3076 3074 3073 3078 3083 3083 3085 3088 3089 3090 3092 3095 3097 3100 3103 3104 3106 3107 3108 3109 3109 3110
3019 3018 3019 3020 3019 3018 3017 3017 3018 3016 3015 3016 3016 3016 3017 3018 3019 3020 3020 3020 3021 3022 3023 3023 3023 3025 3027 3029 3030 3030 3031 3033 3033 3035 3038 3040 3041 3042 3041 3041 3044 3046 3048 3050 3051 3053 3053 3052 3053 3055 3055 3057 3059 3059 3060 3060 3060 3060 3061 3062 3064 3066 3067 3068 3068 3070 3072 3071 3073 3077 3079 3079 3082 3085 3087 3088 3089 3091 3094 3096 3098 3101 3102 3103 3105 3106 3107 3108
3016 3015 3015 3015 3014 3013 3013 3013 3014 3014 3013 3014 3014 3014 3015 3016 3017 3017 3017 3017 3016 3017 3019 3020 3021 3023 3025 3025 3026 3026 3027 3029 3031 3032 3035 3036 3037 3038 3037 3037 3039 3042 3045 3047 3049 3051 3051 3050 3052 3055 3054 3053 3055 3057 3058 3058 3057 3057 3057 3057 3059 3062 3063 3064 3065 3067 3068 3069 3071 3074 3074 3075 3079 3082 3084 3086 3087 3088 3090 3092 3095 3097 3098 3100 3102 3103 3104 3106
3013 3013 3013 3012 3011 3010 3010 3011 3011 3012 3011 3012 3012 3012 3013 3014 3015 3014 3012 3011 3012 3013 3014 3013 3013 3014 3016 3019 3022 3024 3026 3028 3029 3030 3032 3032 3033 3034 3035 3036 3037 3039 3040 3043 3045 3047 3048 3049 3051 3053 3052 3050 3051 3054 3054 3055 3056 3055 3053 3053 3054 3056 3058 3059 3061 3063 3064 3066 3069 3070 3069 3070 3076 3080 3081 3083 3085 3086 3086 3088 3091 3093 3094 3096 3098 3099 3101 3102
3011 3010 3011 3010 3008 3007 3008 3008 3009 3009 3008 3009 3010 3010 3011 3011 3011 3010 3008 3008 3010 3009 3006 3004 3006 3008 3010 3014 3018 3019 3021 3022 3022 3023 3025 3027 3029 3032 3033 3034 3036 3036 3037 3040 3042 3043 3045 3047 3048 3050 3049 3047 3050 3051 3051 3054 3054 3048 3046 3049 3050 3051 3054 3055 3057 3059 3061 3064 3066 3065 3065 3069 3075 3077 3078 3079 3081 3082 3083 3084 3087 3089 3091 3092 3093 3095 3097 3097